Weather Roundup
Issued by NWS

Home | Current Version | Previous Version | Text Only | Print | Product List | Glossary On
Versions: 1 2 3 4 5 6 7 8 9 10 11 12 13 14 15 16 17 18 19 20 21 22 23 24 25 26 27 28 29 30 31 32 33 34 35 36 37 38 39 40 41 42 43 44 45 46 47 48 49 50
000
NZUS93 KARX 311410
HRRWXR

CURRENT HOURLY OBSERVATIONS ACROSS
MUCH OF THE UPPER MISSISSIPPI VALLEY
NATIONAL WEATHER SERVICE LA CROSSE WI
800 AM CST SAT JAN 31 2015


...SOUTHEAST MINNESOTA...


CITY           SKY/WX    TMP DP  RH WIND       PRES   REMARKS
ROCHESTER      CLOUDY    23  20  88 W6        30.13R WCI  16
ROCHESTER/MAYO CLOUDY    25  20  83 CALM      30.14R
WINONA         CLOUDY    25  19  80 CALM      30.18S
AUSTIN         PTCLDY    18  16  93 CALM      30.13R
ALBERT LEA     PTCLDY    23  23 100 CALM      30.12S FOG
DODGE CENTER   CLOUDY    21  21 100 W3        30.13R
PRESTON        CLOUDY    21  19  89 CALM      30.14S
OWATONNA       CLOUDY    23  21  93 CALM      30.14R
FARIBAULT      CLOUDY    23  21  93 CALM      30.15R FOG
$$

...ELSEWHERE IN MINNESOTA...


CITY           SKY/WX    TMP DP  RH WIND       PRES   REMARKS
MINNEAPOLIS    CLOUDY    23  20  88 CALM      30.17R
INTNL FALLS    CLOUDY     6   1  80 NW10      30.26R WCI  -9
DULUTH         CLOUDY    19  12  74 N12       30.15R WCI   7
RED WING       CLOUDY    25  21  86 CALM      30.16R
REDWOOD FALLS  CLOUDY    25  22  88 N7        30.18R WCI  17
MANKATO        CLOUDY    25  21  86 N10       30.15R VSB 1/2 WCI  15
WORTHINGTON    CLOUDY    23  19  86 N13G18    30.14R WCI  11
FAIRMONT       PTCLDY    25  19  80 NW8       30.13R WCI  16
$$

...SOUTHWEST WISCONSIN...


CITY           SKY/WX    TMP DP  RH WIND       PRES   REMARKS
LA CROSSE      CLOUDY    25  17  72 S6        30.17S WCI  18
PRAIRIE DU CHI PTCLDY    19  14  81 CALM      30.19F
BOSCOBEL       PTCLDY    14  10  84 CALM      30.20S
LONE ROCK      FAIR      15  11  83 CALM      30.19S
PLATTEVILLE    PTCLDY    21  17  85 S6        30.18S WCI  14
FORT MC COY    CLOUDY    26  17  68 CALM      30.18R
CAMP DOUGLAS   CLOUDY    27  19  74 SW3       30.15S
VIROQUA        CLOUDY    22  18  81 SW5       30.14S WCI  16
WIS DELLS      CLOUDY    23  16  75 SW5       30.16S WCI  16
$$

...ELSEWHERE IN WISCONSIN...


CITY           SKY/WX    TMP DP  RH WIND       PRES   REMARKS
MILWAUKEE      PTCLDY    26  17  68 W8        30.19R WCI  18
MADISON        PTCLDY    23  15  71 CALM      30.18S
GREEN BAY      CLOUDY    22  17  81 SW3       30.16S
EAU CLAIRE     CLOUDY    23  15  71 CALM      30.15S
BLACK RVR FLS  CLOUDY    24  17  72 CALM      30.16R
MEDFORD        CLOUDY    20  15  82 NW3       30.10S
WAUSAU         CLOUDY    20  12  71 W3        30.11S
WIS RAPIDS     CLOUDY    22  14  71 CALM      30.16R
MARSHFIELD     CLOUDY    22  13  68 W3        30.13R
RICE LAKE      CLOUDY    21  17  85 N3        30.17R
$$

...NORTHEAST IOWA...


CITY           SKY/WX    TMP DP  RH WIND       PRES   REMARKS
DECORAH        PTCLDY    23  18  80 CALM      30.14S
MASON CITY     MOCLDY    24  21  88 W6        30.14F WCI  17
CHARLES CITY   MOCLDY    19  19 100 S5        30.15S WCI  13
OELWEIN        MOCLDY    23  19  86 S5        30.17S WCI  17
$$

...ELSEWHERE IN IOWA...


CITY           SKY/WX    TMP DP  RH WIND       PRES   REMARKS
DES MOINES     CLOUDY    36  29  75 SW7       30.19F WCI  30
IOWA CITY      CLOUDY    30  24  78 SW6       30.23S WCI  24
FORT DODGE     CLOUDY    30  27  86 CALM      30.14S
$$

...NORTHERN ILLINOIS...


CITY           SKY/WX    TMP DP  RH WIND       PRES   REMARKS
CHICAGO-OHARE  MOCLDY    25  19  78 SW7       30.23S WCI  17
CHICAGO-MIDWAY MOCLDY    27  22  81 SW8       30.25F WCI  19
MOLINE         CLOUDY    30  22  72 SW9       30.23S WCI  22
ROCKFORD       MOCLDY    25  18  74 S3        30.24R
PEORIA         CLOUDY    29  22  75 SW7       30.29S WCI  22
$$

NOTE: "FAIR" INDICATES FEW OR NO CLOUDS BELOW 12,000 FEET WITH NO
SIGNIFICANT WEATHER AND/OR OBSTRUCTIONS TO VISIBILITY. WIND
SPEEDS ARE IN MILES-PER-HOUR.



USA.gov is the U.S. government's official web portal to all federal, state and local government web resources and services.